FENGYUN 1C DEB, 37594

Orbit data source: Space-Track

FENGYUN 1C DEB, 37594 is space debris in SSO originally from a launch on Mon, 10 May 1999 UTC launched from the Taiyaun Space Center, China (TSC). Fengyun 1C debris stems from the Chinese weather satellite Fengyun-1C, which was intentionally destroyed by a Chinese anti-satellite missile in 2007. This event dramatically increased the amount of space debris, with thousands of trackable fragments posing hazards to satellites and human spaceflight. The Fengyun 1C debris cloud has become a focal point in discussions about space sustainability and the need for international regulations to prevent the creation of new debris.

Loading next visibility...
Identifier
37594, 1999-025EKN
Orbit
SSO
Country
Flag of CNCN / PRC
Related business
Manufacturer
Unknown
Mission
Spacecraft
Bus & Motor
Unknown
Mass
Unknown
Launch date (UTC)
1999-05-10 (27 years ago)
Launch vehicle
Unknown
Launch site
Taiyaun Space Center, China (TSC)
Object type
Payload
Rocket body
Debris
Shape & HBR
Unknown shape, 0.1 m
Radar Cross Section
Small (<0.1 m²)

Expand to show TLE details & history
Last TLE update: 2 days ago

TLE from 2 days ago
0 FENGYUN 1C DEB
1 37594U 99025EKN 26252.02633016  .00000239  00000-0  15104-3 0  9999
2 37594  98.7101 278.6639 0084928 221.8423 137.6236 14.11343495815748
Epoch: 2026-09-09T00:37Z
TLE epoch observation values (Epoch: 2026-09-09T00:37:54.925Z)
Latitude
-0.00007°
Longitude
-78.89925°
Altitude
903.303 km
Speed
7.377 km/s
True Right ascension
18h 34m 39s
True Declination
0° 00' 00"
Sunlit
Object was in daylight at epoch
Visualization orbit readout
Latitude
Unknown
Longitude
Unknown
Altitude
Unknown
Speed
Unknown
Apparent Right ascension
Unknown
Apparent Declination
Unknown
Sunlit
N/A
Visualization observer readout
Local Sidereal Time
01:58:14
Azimuth
Unknown
Elevation
Unknown
Doppler factor
Unknown
Orbital elements
Apogee altitude
913.351 km
Perigee altitude
790.544 km
Semi-major axis
7,230.085 km
Eccentricity
0.00849
Inclination
98.7101°
RAAN
278.6639°
Arg. of periapsis
221.8423°
True anomaly
138.27442°
Mean anomaly
137.6236°
Eccentric anomaly
137.94952°
Mean motion
3.53043 °/min
Orbital period
101.97 mins
BSTAR
0.00015104
Loading maneuver chart data...
Computing Atmospheric mass density...

Documentation

Showing up to 5 results
|